• In Russia
  • List of Countries
  • For 7 days
  • Water Temperature
  • Satellite Maps
  • Weather Map
  • Weather Widgets
  • user-avatar
    Login

    Hourly Weather Jewłach

    Today, 23 April, Sunday

    Time Temperature Precipitation Wind Pressure Humidity
    00:00 +12°C° 0 mm 4 mps 764 mmHg 65%
    01:00 +11°C° 0 mm 4 mps 764 mmHg 68%
    02:00 +11°C° 0 mm 3 mps 764 mmHg 71%
    03:00 +10°C° 0 mm 4 mps 764 mmHg 76%
    04:00 +10°C° 0 mm 3 mps 764 mmHg 74%
    05:00 +10°C° 0 mm 3 mps 764 mmHg 72%
    06:00 +11°C° 0 mm 3 mps 764 mmHg 70%
    07:00 +13°C° 0 mm 3 mps 763 mmHg 64%
    08:00 +14°C° 0 mm 3 mps 762 mmHg 57%
    09:00 +17°C° 0 mm 3 mps 762 mmHg 50%
    10:00 +19°C° 0 mm 3 mps 761 mmHg 47%
    11:00 +20°C° 0 mm 3 mps 759 mmHg 44%
    12:00 +22°C° 0 mm 3 mps 758 mmHg 41%
    13:00 +24°C° 0 mm 3 mps 757 mmHg 40%
    14:00 +24°C° 0 mm 3 mps 756 mmHg 38%
    15:00 +25°C° 0 mm 3 mps 755 mmHg 37%
    16:00 +24°C° 0 mm 3 mps 755 mmHg 42%
    17:00 +23°C° 0 mm 2 mps 754 mmHg 46%
    18:00 +21°C° 0 mm 2 mps 753 mmHg 51%
    19:00 +20°C° 0 mm 2 mps 753 mmHg 55%
    20:00 +19°C° 0 mm 2 mps 753 mmHg 58%
    21:00 +18°C° 0 mm 2 mps 752 mmHg 62%
    22:00 +17°C° 0 mm 2 mps 752 mmHg 67%
    23:00 +16°C° 0 mm 2 mps 752 mmHg 72%

    Tomorrow, 24 April, Monday

    Time Temperature Precipitation Wind Pressure Humidity
    00:00 +15°C° 0 mm 2 mps 752 mmHg 77%
    01:00 +14°C° 0 mm 3 mps 752 mmHg 73%
    02:00 +15°C° 0 mm 5 mps 752 mmHg 69%
    03:00 +15°C° 0 mm 7 mps 753 mmHg 65%
    04:00 +15°C° 0 mm 8 mps 753 mmHg 60%
    05:00 +15°C° 0 mm 8 mps 754 mmHg 56%
    06:00 +15°C° 0 mm 9 mps 754 mmHg 51%
    07:00 +17°C° 0 mm 10 mps 754 mmHg 46%
    08:00 +19°C° 0 mm 10 mps 755 mmHg 40%
    09:00 +21°C° 0 mm 11 mps 755 mmHg 35%
    10:00 +22°C° 0 mm 10 mps 755 mmHg 33%
    11:00 +23°C° 0 mm 10 mps 755 mmHg 31%
    12:00 +24°C° 0 mm 9 mps 755 mmHg 30%
    13:00 +24°C° 0.1 mm 9 mps 755 mmHg 30%
    14:00 +24°C° 0.1 mm 8 mps 755 mmHg 30%
    15:00 +24°C° 0.1 mm 7 mps 756 mmHg 31%
    16:00 +22°C° 0.3 mm 6 mps 757 mmHg 37%
    17:00 +20°C° 0.3 mm 5 mps 757 mmHg 43%
    18:00 +19°C° 0.3 mm 4 mps 758 mmHg 50%
    19:00 +18°C° 0 mm 4 mps 759 mmHg 51%
    20:00 +17°C° 0 mm 4 mps 760 mmHg 52%
    21:00 +16°C° 0 mm 3 mps 761 mmHg 53%
    22:00 +14°C° 0 mm 3 mps 761 mmHg 54%
    23:00 +14°C° 0 mm 2 mps 762 mmHg 55%

    Day after tomorrow, 25 April, Tuesday

    Time Temperature Precipitation Wind Pressure Humidity
    00:00 +13°C° 0 mm 2 mps 762 mmHg 56%
    01:00 +12°C° 0 mm 2 mps 762 mmHg 59%
    02:00 +12°C° 0 mm 1 mps 762 mmHg 61%
    03:00 +11°C° 0 mm 1 mps 762 mmHg 63%
    04:00 +11°C° 0 mm 1 mps 763 mmHg 62%
    05:00 +12°C° 0 mm 1 mps 763 mmHg 62%
    06:00 +12°C° 0 mm 1 mps 764 mmHg 62%
    07:00 +14°C° 0 mm 2 mps 764 mmHg 53%
    08:00 +16°C° 0 mm 2 mps 764 mmHg 45%
    09:00 +18°C° 0 mm 3 mps 764 mmHg 36%
    10:00 +19°C° 0 mm 3 mps 764 mmHg 33%
    11:00 +20°C° 0 mm 3 mps 764 mmHg 30%
    12:00 +21°C° 0 mm 2 mps 764 mmHg 27%
    13:00 +21°C° 0 mm 2 mps 764 mmHg 27%
    14:00 +21°C° 0 mm 3 mps 764 mmHg 27%
    15:00 +22°C° 0 mm 3 mps 764 mmHg 27%
    16:00 +20°C° 0 mm 3 mps 765 mmHg 31%
    17:00 +19°C° 0 mm 4 mps 766 mmHg 35%
    18:00 +18°C° 0 mm 4 mps 767 mmHg 39%
    19:00 +15°C° 0 mm 4 mps 768 mmHg 41%
    20:00 +14°C° 0 mm 4 mps 769 mmHg 43%
    21:00 +13°C° 0 mm 4 mps 770 mmHg 45%
    22:00 +12°C° 0 mm 3 mps 770 mmHg 48%
    23:00 +11°C° 0 mm 3 mps 770 mmHg 50%

    26 April, Wednesday

    Time Temperature Precipitation Wind Pressure Humidity
    00:00 +12°C° 0 mm 2 mps 771 mmHg 53%
    01:00 +10°C° 0 mm 2 mps 771 mmHg 55%
    02:00 +10°C° 0 mm 2 mps 771 mmHg 57%
    03:00 +10°C° 0 mm 2 mps 771 mmHg 59%
    04:00 +10°C° 0 mm 2 mps 772 mmHg 60%
    05:00 +10°C° 0 mm 2 mps 772 mmHg 62%
    06:00 +10°C° 0 mm 2 mps 772 mmHg 63%
    07:00 +11°C° 0.1 mm 3 mps 773 mmHg 63%
    08:00 +11°C° 0.1 mm 3 mps 773 mmHg 62%
    09:00 +12°C° 0.1 mm 4 mps 773 mmHg 62%
    10:00 +13°C° 0 mm 4 mps 772 mmHg 57%
    11:00 +14°C° 0 mm 4 mps 772 mmHg 53%
    12:00 +15°C° 0 mm 5 mps 771 mmHg 48%
    13:00 +16°C° 0 mm 5 mps 771 mmHg 45%
    14:00 +17°C° 0 mm 5 mps 771 mmHg 43%
    15:00 +19°C° 0 mm 5 mps 770 mmHg 40%
    16:00 +17°C° 0 mm 5 mps 770 mmHg 43%
    17:00 +17°C° 0 mm 4 mps 771 mmHg 45%
    18:00 +15°C° 0 mm 4 mps 771 mmHg 48%
    19:00 +14°C° 0 mm 4 mps 771 mmHg 53%
    20:00 +12°C° 0 mm 4 mps 772 mmHg 58%
    21:00 +11°C° 0 mm 3 mps 772 mmHg 62%
    22:00 +10°C° 0 mm 3 mps 772 mmHg 66%
    23:00 +9°C° 0 mm 2 mps 772 mmHg 69%

    27 April, Thursday

    Time Temperature Precipitation Wind Pressure Humidity
    00:00 +8°C° 0 mm 2 mps 772 mmHg 73%
    01:00 +8°C° 0 mm 2 mps 771 mmHg 75%
    02:00 +8°C° 0 mm 1 mps 771 mmHg 77%
    03:00 +8°C° 0 mm 1 mps 771 mmHg 80%
    04:00 +8°C° 0 mm 1 mps 771 mmHg 77%
    05:00 +9°C° 0 mm 1 mps 771 mmHg 75%
    06:00 +9°C° 0 mm 0 mps 771 mmHg 73%
    07:00 +12°C° 0 mm 1 mps 771 mmHg 64%
    08:00 +14°C° 0 mm 1 mps 771 mmHg 55%
    09:00 +16°C° 0 mm 2 mps 770 mmHg 46%
    10:00 +17°C° 0 mm 2 mps 770 mmHg 42%
    11:00 +18°C° 0 mm 3 mps 769 mmHg 38%
    12:00 +20°C° 0 mm 3 mps 768 mmHg 34%
    13:00 +20°C° 0 mm 4 mps 768 mmHg 34%
    14:00 +21°C° 0 mm 4 mps 767 mmHg 34%
    15:00 +21°C° 0 mm 4 mps 767 mmHg 33%
    16:00 +20°C° 0 mm 4 mps 767 mmHg 37%
    17:00 +19°C° 0 mm 4 mps 768 mmHg 41%
    18:00 +18°C° 0 mm 3 mps 768 mmHg 45%
    19:00 +17°C° 0 mm 3 mps 768 mmHg 49%
    20:00 +14°C° 0 mm 3 mps 769 mmHg 53%
    21:00 +12°C° 0 mm 3 mps 770 mmHg 57%
    22:00 +13°C° 0 mm 2 mps 769 mmHg 60%
    23:00 +12°C° 0 mm 2 mps 769 mmHg 62%

    28 April, Friday

    Time Temperature Precipitation Wind Pressure Humidity
    00:00 +10°C° 0 mm 2 mps 769 mmHg 65%
    01:00 +11°C° 0 mm 1 mps 769 mmHg 66%
    02:00 +10°C° 0 mm 1 mps 769 mmHg 67%
    03:00 +10°C° 0 mm 1 mps 769 mmHg 69%
    04:00 +11°C° 0 mm 1 mps 769 mmHg 66%
    05:00 +11°C° 0 mm 1 mps 769 mmHg 63%
    06:00 +11°C° 0 mm 0 mps 769 mmHg 61%
    07:00 +14°C° 0 mm 1 mps 768 mmHg 54%
    08:00 +16°C° 0 mm 1 mps 768 mmHg 47%
    09:00 +19°C° 0 mm 1 mps 767 mmHg 40%
    10:00 +19°C° 0 mm 2 mps 767 mmHg 39%
    11:00 +20°C° 0 mm 2 mps 766 mmHg 38%
    12:00 +23°C° 0 mm 2 mps 765 mmHg 37%
    13:00 +22°C° 0 mm 3 mps 765 mmHg 37%
    14:00 +22°C° 0 mm 3 mps 765 mmHg 37%
    15:00 +23°C° 0 mm 4 mps 764 mmHg 37%
    16:00 +22°C° 0 mm 4 mps 764 mmHg 41%
    17:00 +21°C° 0 mm 4 mps 765 mmHg 44%
    18:00 +20°C° 0 mm 3 mps 765 mmHg 48%
    19:00 +19°C° 0 mm 3 mps 765 mmHg 50%
    20:00 +17°C° 0 mm 3 mps 765 mmHg 53%
    21:00 +15°C° 0 mm 2 mps 766 mmHg 55%
    22:00 +14°C° 0 mm 2 mps 766 mmHg 57%
    23:00 +14°C° 0 mm 1 mps 765 mmHg 59%
    Show more